Location: ?????
(37.7324°N, 23.9257°E)
Time: 21:37:43
(UTC+00:00)

ALOS - Pass Details

Date: 29 November 2020
Orbit: 683 x 685 km, 97.9° (Epoch: 19 January)

Event Time Altitude Azimuth Distance (km) Brightness Sun altitude
Rises 03:49:31 0° 358° (N) 3,058 5.5 -17.4°
Reaches altitude 10° 03:52:05 10° 345° (NNW) 2,138 4.5 -16.9°
Enters shadow 03:53:23 16° 333° (NNW) 1,749 4.0 -16.7°
